SL-14 R/B

基本信息
目录编号:
27061
目录名称:
SL-14 R/B
国际标识:
2001-058G
轨道中心:
EARTH
物体状态:
在轨
发射日期:
2001-12-28 UTC
国别:
俄罗斯(独联体) (CIS)
轨道信息
数据来源: 国际轨道数据
星历时间: 2026-07-13T16:20:23+0800
半长轴: 7826.124km
偏心率: 0.004433
轨道倾角: 82.545°
近地点辐角: 56.982°
升交点赤经: 277.814°
平近点角: 11.352°
近地点: 1413.293km
远地点: 1482.681km
周期: 114.836分钟
每日圈数: 12.539571
详细信息
发射场:
PKMTR
轨道高度:
LEO
数据来源:
AOE Integration Group
参考系:
TEME
时间系统:
UTC
历元类型:
SGP4
2D轨道图
3D轨道图
轨道高度分析图
轨道倾角分析图
轨道综合分析图
查看轨道综合分析图